TimeCDT,TemperatureF,Dew PointF,Humidity,Sea Level PressureIn,VisibilityMPH,Wind Direction,Wind SpeedMPH,Gust SpeedMPH,PrecipitationIn,Events,Conditions,WindDirDegrees,DateUTC
12:53 AM,72.0,63.0,73,29.88,10.0,ENE,6.9,-,N/A,,Clear,60,2013-08-31 05:53:00
1:53 AM,71.1,63.0,75,29.89,10.0,East,5.8,-,N/A,,Clear,90,2013-08-31 06:53:00
2:53 AM,69.1,63.0,81,29.88,10.0,ENE,4.6,-,N/A,,Clear,70,2013-08-31 07:53:00
3:53 AM,68.0,63.0,84,29.87,10.0,ENE,6.9,-,N/A,,Clear,70,2013-08-31 08:53:00
4:53 AM,68.0,63.0,84,29.88,10.0,NE,4.6,-,N/A,,Clear,50,2013-08-31 09:53:00
5:53 AM,66.9,63.0,87,29.87,10.0,East,6.9,-,N/A,,Scattered Clouds,100,2013-08-31 10:53:00
6:53 AM,66.0,63.0,90,29.86,10.0,ESE,5.8,-,N/A,,Scattered Clouds,120,2013-08-31 11:53:00
7:53 AM,68.0,63.0,84,29.87,10.0,Calm,Calm,-,N/A,,Mostly Cloudy,0,2013-08-31 12:53:00
8:53 AM,70.0,64.0,81,29.85,10.0,SSE,5.8,-,N/A,,Scattered Clouds,150,2013-08-31 13:53:00
9:53 AM,73.9,64.9,73,29.85,10.0,South,4.6,-,N/A,,Mostly Cloudy,170,2013-08-31 14:53:00
10:53 AM,78.1,66.0,66,29.84,10.0,SE,4.6,-,N/A,,Scattered Clouds,130,2013-08-31 15:53:00
11:53 AM,81.0,66.0,60,29.83,10.0,Calm,Calm,-,N/A,,Partly Cloudy,0,2013-08-31 16:53:00
12:53 PM,82.9,66.0,56,29.83,10.0,SSE,5.8,-,N/A,,Partly Cloudy,160,2013-08-31 17:53:00
1:53 PM,84.9,64.9,51,29.81,10.0,SE,5.8,-,N/A,,Partly Cloudy,130,2013-08-31 18:53:00
2:53 PM,86.0,64.0,48,29.80,10.0,Variable,4.6,-,N/A,,Clear,0,2013-08-31 19:53:00
3:53 PM,87.1,64.0,46,29.78,10.0,South,8.1,-,N/A,,Partly Cloudy,170,2013-08-31 20:53:00
4:53 PM,88.0,64.0,45,29.75,10.0,South,5.8,-,N/A,,Partly Cloudy,190,2013-08-31 21:53:00
5:53 PM,87.1,66.0,49,29.75,10.0,SW,9.2,-,N/A,,Scattered Clouds,220,2013-08-31 22:53:00
6:53 PM,84.9,66.9,55,29.78,10.0,SW,6.9,-,N/A,,Mostly Cloudy,230,2013-08-31 23:53:00
7:53 PM,82.9,66.9,58,29.84,10.0,WNW,9.2,-,N/A,,Overcast,300,2013-09-01 00:53:00
8:01 PM,82.4,68.0,62,29.85,10.0,WNW,21.9,26.5,0.00,Rain-Thunderstorm,Light Thunderstorms and Rain,300,2013-09-01 01:01:00
8:53 PM,72.0,64.0,76,29.87,6.0,NW,13.8,24.2,0.02,Rain-Thunderstorm,Thunderstorms and Rain,320,2013-09-01 01:53:00
9:05 PM,71.6,64.4,78,29.85,8.0,NNW,9.2,-,0.02,Rain,Light Rain,340,2013-09-01 02:05:00
9:53 PM,71.1,64.9,81,29.75,10.0,South,12.7,-,0.04,Rain,Light Rain,180,2013-09-01 02:53:00
10:53 PM,75.0,61.0,62,29.70,10.0,South,4.6,-,0.00,,Overcast,170,2013-09-01 03:53:00
11:53 PM,75.0,61.0,62,29.73,10.0,West,3.5,-,N/A,,Overcast,280,2013-09-01 04:53:00